Simultaneous Nadir Overpasses (SNOs) Predictions

Prediction of SNOs between AQUA and NPP Satellite Orbit:

Table of predicted SNOs for the next 14.0 days since TLE Epoch: 9/16/2023
Index Date (AQUA) Time (AQUA) Lat,Lon (AQUA) SZA (AQUA ) Date (NPP) Time (NPP) Lat,Lon (NPP) SZA (NPP ) Distance(km) Time Diff (sec)
1 09/17/2023 08:02:43 -80.82, 151.53 92.85 09/17/2023 08:01:52 -80.81, 151.41 92.80 2.32 51
2 09/17/2023 08:52:04 80.89, -39.86 87.02 09/17/2023 08:52:32 80.90, -39.71 86.98 2.84 28
3 09/19/2023 22:37:10 -80.86, -66.45 91.99 09/19/2023 22:37:12 -80.86, -66.52 91.98 1.33 2
4 09/22/2023 12:22:14 80.84, -92.97 89.01 09/22/2023 12:21:50 80.84, -93.04 89.03 1.37 24
5 09/22/2023 13:11:36 -80.91, 75.54 91.12 09/22/2023 13:12:32 -80.91, 75.51 91.15 0.57 56
6 09/25/2023 02:07:16 -80.84,-119.23 90.05 09/25/2023 02:06:27 -80.84,-119.21 90.02 0.55 49
7 09/25/2023 02:56:37 80.91, 49.33 89.84 09/25/2023 02:57:08 80.90, 49.28 89.82 0.87 31
8 09/27/2023 15:52:17 80.84,-145.49 90.91 09/27/2023 15:51:04 80.84,-145.50 90.96 0.35 73



Historial Predications of SNOs between AQUA and NPP
